APG326 RPLL-RPVD

Flight info

Callsign APG326
Flight time 1h 4m
Altitude 33000
Route VERDE2R VERDE A461 SAJ W3 IOO B472 NANAS NANAS1W
Aircraft A320/M-SDE3FGHIRWY/LB1

Departure

Time 2026-04-20 16:09
Airport Ninoy Aquino International Airport (RPLL)

Arrival

Time 2026-04-20 17:13
Airport Sibulan Airport (RPVD)
Time Latitude Longitude Altitude Speed Heading
2026-04-20 15:43 14.52378 121.00229 69 ft 0 kts 268°
2026-04-20 15:56 14.52379 121.00240 63 ft 2 kts 268°
2026-04-20 15:56 14.52379 121.00258 69 ft 2 kts 268°
2026-04-20 15:56 14.52380 121.00276 69 ft 2 kts 268°
2026-04-20 15:57 14.52381 121.00294 64 ft 3 kts 242°
2026-04-20 15:57 14.52392 121.00308 59 ft 3 kts 207°
2026-04-20 15:57 14.52406 121.00313 65 ft 0 kts 179°
2026-04-20 15:59 14.52405 121.00316 64 ft 0 kts 150°
2026-04-20 16:00 14.52405 121.00320 62 ft 2 kts 107°
2026-04-20 16:00 14.52398 121.00349 67 ft 9 kts 108°
2026-04-20 16:00 14.52353 121.00413 68 ft 12 kts 131°
2026-04-20 16:00 14.52289 121.00480 68 ft 14 kts 137°
2026-04-20 16:01 14.52214 121.00557 68 ft 17 kts 135°
2026-04-20 16:01 14.52111 121.00664 64 ft 25 kts 134°
2026-04-20 16:01 14.51974 121.00806 69 ft 31 kts 137°
2026-04-20 16:01 14.51808 121.00978 65 ft 36 kts 134°
2026-04-20 16:02 14.51621 121.01171 67 ft 35 kts 134°
2026-04-20 16:02 14.51465 121.01335 66 ft 34 kts 134°
2026-04-20 16:02 14.51308 121.01493 65 ft 32 kts 134°
2026-04-20 16:02 14.51212 121.01593 67 ft 6 kts 138°
2026-04-20 16:03 14.51156 121.01647 65 ft 16 kts 134°
2026-04-20 16:03 14.51067 121.01744 65 ft 18 kts 139°
2026-04-20 16:03 14.51013 121.01762 62 ft 10 kts 200°
2026-04-20 16:03 14.50932 121.01732 61 ft 10 kts 176°
2026-04-20 16:04 14.50879 121.01695 63 ft 6 kts 249°
2026-04-20 16:04 14.50878 121.01694 63 ft 0 kts 248°
2026-04-20 16:04 14.50864 121.01668 66 ft 11 kts 239°
2026-04-20 16:05 14.50826 121.01601 64 ft 10 kts 240°
2026-04-20 16:05 14.50787 121.01532 67 ft 18 kts 239°
2026-04-20 16:05 14.50692 121.01361 66 ft 31 kts 241°
2026-04-20 16:05 14.50583 121.01165 63 ft 32 kts 240°
2026-04-20 16:06 14.50468 121.00960 66 ft 33 kts 240°
2026-04-20 16:06 14.50352 121.00748 64 ft 35 kts 240°
2026-04-20 16:06 14.50230 121.00530 64 ft 36 kts 240°
2026-04-20 16:06 14.50105 121.00307 67 ft 36 kts 240°
2026-04-20 16:07 14.50003 121.00124 65 ft 25 kts 240°
2026-04-20 16:07 14.49940 121.00010 66 ft 16 kts 240°
2026-04-20 16:07 14.49861 120.99974 64 ft 14 kts 155°
2026-04-20 16:07 14.49808 121.00049 67 ft 15 kts 70°
2026-04-20 16:08 14.49820 121.00072 65 ft 0 kts 62°
2026-04-20 16:08 14.49879 121.00180 68 ft 54 kts 60°
2026-04-20 16:08 14.50184 121.00731 68 ft 120 kts 59°
2026-04-20 16:08 14.50690 121.01643 90 ft 169 kts 60°
2026-04-20 16:09 14.51280 121.02701 717 ft 171 kts 59°
2026-04-20 16:09 14.51928 121.03738 1389 ft 178 kts 57°
2026-04-20 16:09 14.52652 121.04870 1743 ft 201 kts 57°
2026-04-20 16:09 14.53463 121.06152 2104 ft 226 kts 57°
2026-04-20 16:10 14.54141 121.07693 2565 ft 249 kts 80°
2026-04-20 16:10 14.53984 121.09505 3284 ft 262 kts 110°
2026-04-20 16:10 14.52951 121.11058 4184 ft 268 kts 138°
2026-04-20 16:10 14.51297 121.11954 5079 ft 274 kts 166°
2026-04-20 16:11 14.49389 121.12175 5979 ft 278 kts 176°
2026-04-20 16:11 14.47442 121.12254 6840 ft 282 kts 177°
2026-04-20 16:11 14.45470 121.12318 7667 ft 286 kts 177°
2026-04-20 16:11 14.43466 121.12374 8491 ft 290 kts 177°
2026-04-20 16:12 14.41466 121.12421 9302 ft 294 kts 177°
2026-04-20 16:12 14.39407 121.12461 10089 ft 298 kts 177°
2026-04-20 16:12 14.37246 121.12501 10368 ft 322 kts 177°
2026-04-20 16:12 14.34938 121.12548 10710 ft 339 kts 177°
2026-04-20 16:13 14.32552 121.12552 11307 ft 347 kts 182°
2026-04-20 16:13 14.30124 121.12333 11999 ft 352 kts 184°
2026-04-20 16:13 14.27674 121.12062 12684 ft 356 kts 185°
2026-04-20 16:13 14.25190 121.11762 13357 ft 361 kts 186°
2026-04-20 16:14 14.22681 121.11452 13995 ft 365 kts 186°
2026-04-20 16:14 14.20143 121.11144 14594 ft 368 kts 186°
2026-04-20 16:14 14.17622 121.10842 15192 ft 371 kts 186°
2026-04-20 16:14 14.15044 121.10540 15787 ft 374 kts 186°
2026-04-20 16:15 14.12448 121.10245 16374 ft 377 kts 185°
2026-04-20 16:15 14.09833 121.09951 16958 ft 379 kts 185°
2026-04-20 16:15 14.07195 121.09654 17542 ft 382 kts 185°
2026-04-20 16:15 14.04545 121.09353 18125 ft 384 kts 186°
2026-04-20 16:16 14.01875 121.09050 18630 ft 387 kts 186°
2026-04-20 16:16 13.99189 121.08746 19123 ft 389 kts 186°
2026-04-20 16:16 13.96488 121.08439 19626 ft 391 kts 186°
2026-04-20 16:16 13.93774 121.08127 20119 ft 394 kts 186°
2026-04-20 16:17 13.91046 121.07813 20609 ft 396 kts 186°
2026-04-20 16:17 13.88301 121.07496 21110 ft 398 kts 186°
2026-04-20 16:17 13.85539 121.07177 21598 ft 401 kts 186°
2026-04-20 16:17 13.82760 121.06858 22104 ft 403 kts 186°
2026-04-20 16:18 13.79964 121.06536 22587 ft 405 kts 186°
2026-04-20 16:18 13.77151 121.06216 23064 ft 408 kts 186°
2026-04-20 16:18 13.74322 121.05896 23531 ft 410 kts 186°
2026-04-20 16:18 13.71477 121.05572 23905 ft 412 kts 186°
2026-04-20 16:19 13.68618 121.05247 24281 ft 414 kts 186°
2026-04-20 16:19 13.65781 121.04925 24659 ft 416 kts 186°
2026-04-20 16:19 13.62893 121.04599 25055 ft 418 kts 186°
2026-04-20 16:19 13.60000 121.04273 25427 ft 419 kts 186°
2026-04-20 16:20 13.57096 121.03944 25789 ft 421 kts 186°
2026-04-20 16:20 13.54184 121.03614 26166 ft 422 kts 186°
2026-04-20 16:20 13.51259 121.03284 26511 ft 424 kts 186°
2026-04-20 16:20 13.48300 121.03191 26846 ft 426 kts 180°
2026-04-20 16:21 13.45330 121.03219 27187 ft 427 kts 180°
2026-04-20 16:21 13.42351 121.03251 27517 ft 429 kts 180°
2026-04-20 16:21 13.39359 121.03284 27837 ft 431 kts 180°
2026-04-20 16:21 13.36394 121.03315 28160 ft 432 kts 180°
2026-04-20 16:22 13.33378 121.03348 28479 ft 434 kts 180°
2026-04-20 16:22 13.30350 121.03379 28784 ft 436 kts 180°
2026-04-20 16:22 13.27312 121.03408 29083 ft 437 kts 180°
2026-04-20 16:22 13.24266 121.03435 29363 ft 439 kts 180°
2026-04-20 16:23 13.21208 121.03462 29668 ft 440 kts 181°
2026-04-20 16:23 13.18136 121.03489 29958 ft 442 kts 181°
2026-04-20 16:23 13.15058 121.03518 30210 ft 443 kts 180°
2026-04-20 16:23 13.11968 121.03550 30450 ft 444 kts 180°
2026-04-20 16:24 13.08870 121.03583 30691 ft 446 kts 180°
2026-04-20 16:24 13.05765 121.03617 30934 ft 447 kts 180°
2026-04-20 16:24 13.02657 121.03650 31169 ft 447 kts 180°
2026-04-20 16:24 12.99581 121.03682 31370 ft 449 kts 180°
2026-04-20 16:25 12.96459 121.03716 31634 ft 448 kts 180°
2026-04-20 16:25 12.93307 121.03750 31973 ft 446 kts 180°
2026-04-20 16:25 12.90206 121.03781 32307 ft 444 kts 181°
2026-04-20 16:25 12.87160 121.03810 32614 ft 443 kts 181°
2026-04-20 16:26 12.84084 121.03839 32899 ft 442 kts 181°
2026-04-20 16:26 12.81028 121.03869 32975 ft 434 kts 180°
2026-04-20 16:26 12.75088 121.03930 32982 ft 422 kts 181°
2026-04-20 16:27 12.69222 121.03986 32974 ft 421 kts 181°
2026-04-20 16:27 12.63368 121.04040 32971 ft 420 kts 181°
2026-04-20 16:28 12.57517 121.04095 32966 ft 420 kts 181°
2026-04-20 16:28 12.51667 121.04148 32962 ft 420 kts 181°
2026-04-20 16:29 12.45813 121.04209 32957 ft 420 kts 181°
2026-04-20 16:29 12.39968 121.04385 32955 ft 421 kts 173°
2026-04-20 16:30 12.37108 121.05078 32952 ft 424 kts 162°
2026-04-20 16:30 12.34423 121.06346 32947 ft 427 kts 151°
2026-04-20 16:30 12.32046 121.08124 32946 ft 431 kts 140°
2026-04-20 16:30 12.29859 121.10232 32941 ft 432 kts 140°
2026-04-20 16:31 12.25469 121.14442 32939 ft 433 kts 140°
2026-04-20 16:31 12.21061 121.18642 32942 ft 433 kts 140°
2026-04-20 16:32 12.16646 121.22852 32939 ft 433 kts 140°
2026-04-20 16:32 12.12262 121.27039 32943 ft 434 kts 140°
2026-04-20 16:33 12.07853 121.31251 32944 ft 434 kts 140°
2026-04-20 16:33 12.03445 121.35469 32943 ft 434 kts 140°
2026-04-20 16:34 11.99027 121.39681 32950 ft 434 kts 140°
2026-04-20 16:34 11.94610 121.43887 32951 ft 434 kts 140°
2026-04-20 16:35 11.90189 121.48094 32953 ft 434 kts 140°
2026-04-20 16:35 11.85768 121.52307 32950 ft 434 kts 140°
2026-04-20 16:36 11.81353 121.56521 32950 ft 434 kts 140°
2026-04-20 16:36 11.76964 121.60704 32951 ft 434 kts 140°
2026-04-20 16:37 11.72544 121.64905 32951 ft 434 kts 140°
2026-04-20 16:37 11.68124 121.69112 32950 ft 434 kts 140°
2026-04-20 16:38 11.63692 121.73322 32949 ft 435 kts 140°
2026-04-20 16:38 11.59267 121.77528 32951 ft 435 kts 140°
2026-04-20 16:39 11.55594 121.81023 32950 ft 435 kts 140°
2026-04-20 16:39 11.50450 121.85909 32954 ft 435 kts 140°
2026-04-20 16:40 11.46023 121.90107 32952 ft 435 kts 140°
2026-04-20 16:40 11.41594 121.94304 32960 ft 435 kts 140°
2026-04-20 16:41 11.37918 121.97797 32958 ft 435 kts 140°
2026-04-20 16:41 11.33488 122.02000 32962 ft 435 kts 140°
2026-04-20 16:42 11.29060 122.06193 32969 ft 434 kts 140°
2026-04-20 16:42 11.24631 122.10392 32969 ft 435 kts 140°
2026-04-20 16:43 11.20219 122.14574 32972 ft 435 kts 140°
2026-04-20 16:43 11.15793 122.18764 32976 ft 434 kts 140°
2026-04-20 16:44 11.11388 122.22917 32972 ft 434 kts 140°
2026-04-20 16:44 11.07325 122.26748 32970 ft 434 kts 140°
2026-04-20 16:45 11.02899 122.30935 32971 ft 434 kts 140°
2026-04-20 16:45 10.98476 122.35120 32970 ft 434 kts 140°
2026-04-20 16:46 10.94075 122.39281 32964 ft 434 kts 140°
2026-04-20 16:46 10.89648 122.43452 32954 ft 433 kts 140°
2026-04-20 16:47 10.85214 122.47609 32949 ft 433 kts 142°
2026-04-20 16:47 10.80170 122.50822 32943 ft 427 kts 157°
2026-04-20 16:48 10.74782 122.53367 32938 ft 427 kts 158°
2026-04-20 16:48 10.69376 122.55908 32935 ft 427 kts 157°
2026-04-20 16:49 10.64014 122.58439 32929 ft 427 kts 157°
2026-04-20 16:49 10.58623 122.60991 32926 ft 427 kts 157°
2026-04-20 16:50 10.53228 122.63545 32769 ft 428 kts 157°
2026-04-20 16:50 10.50537 122.64818 32416 ft 425 kts 157°
2026-04-20 16:50 10.47865 122.66082 31856 ft 422 kts 157°
2026-04-20 16:51 10.45212 122.67335 31314 ft 419 kts 157°
2026-04-20 16:51 10.42568 122.68580 30779 ft 417 kts 157°
2026-04-20 16:51 10.39943 122.69817 30248 ft 415 kts 157°
2026-04-20 16:51 10.37335 122.71049 29665 ft 413 kts 157°
2026-04-20 16:52 10.34732 122.72279 29112 ft 410 kts 157°
2026-04-20 16:52 10.32158 122.73494 28584 ft 406 kts 156°
2026-04-20 16:52 10.29633 122.74685 28072 ft 403 kts 156°
2026-04-20 16:52 10.27097 122.75881 27572 ft 400 kts 156°
2026-04-20 16:53 10.24580 122.77069 27072 ft 397 kts 156°
2026-04-20 16:53 10.22083 122.78248 26598 ft 394 kts 156°
2026-04-20 16:53 10.19593 122.79425 26115 ft 392 kts 156°
2026-04-20 16:53 10.17124 122.80589 25644 ft 390 kts 156°
2026-04-20 16:54 10.14666 122.81747 25175 ft 388 kts 156°
2026-04-20 16:54 10.12249 122.82886 24700 ft 387 kts 155°
2026-04-20 16:54 10.09811 122.84033 24225 ft 385 kts 155°
2026-04-20 16:54 10.07372 122.85178 23734 ft 385 kts 155°
2026-04-20 16:55 10.04944 122.86320 23190 ft 384 kts 155°
2026-04-20 16:55 10.02514 122.87463 22675 ft 382 kts 155°
2026-04-20 16:55 10.00105 122.88596 22180 ft 380 kts 155°
2026-04-20 16:55 9.97709 122.89724 21687 ft 379 kts 155°
2026-04-20 16:56 9.95353 122.90831 21195 ft 377 kts 155°
2026-04-20 16:56 9.92973 122.91952 20695 ft 376 kts 155°
2026-04-20 16:56 9.90604 122.93067 20199 ft 375 kts 155°
2026-04-20 16:56 9.88238 122.94178 19709 ft 374 kts 155°
2026-04-20 16:57 9.85879 122.95287 19219 ft 373 kts 155°
2026-04-20 16:57 9.83525 122.96395 18725 ft 373 kts 154°
2026-04-20 16:57 9.81179 122.97521 18237 ft 372 kts 151°
2026-04-20 16:57 9.79049 122.99015 17703 ft 370 kts 137°
2026-04-20 16:58 9.77358 123.00922 17232 ft 367 kts 125°
2026-04-20 16:58 9.75899 123.03040 16765 ft 365 kts 125°
2026-04-20 16:58 9.74444 123.05141 16298 ft 363 kts 125°
2026-04-20 16:58 9.72996 123.07227 15835 ft 361 kts 125°
2026-04-20 16:59 9.71567 123.09281 15393 ft 359 kts 125°
2026-04-20 16:59 9.70127 123.11346 14938 ft 358 kts 125°
2026-04-20 16:59 9.68688 123.13404 14486 ft 357 kts 125°
2026-04-20 16:59 9.67258 123.15450 14031 ft 356 kts 125°
2026-04-20 17:00 9.64410 123.19534 13123 ft 351 kts 125°
2026-04-20 17:00 9.63008 123.21546 12605 ft 345 kts 126°
2026-04-20 17:00 9.61657 123.23483 12176 ft 329 kts 126°
2026-04-20 17:01 9.60364 123.25338 11760 ft 316 kts 126°
2026-04-20 17:01 9.59100 123.27153 11324 ft 315 kts 126°
2026-04-20 17:01 9.57834 123.28969 10902 ft 316 kts 126°
2026-04-20 17:01 9.56567 123.30788 10471 ft 316 kts 126°
2026-04-20 17:02 9.55300 123.32604 10074 ft 315 kts 126°
2026-04-20 17:02 9.54057 123.34385 9926 ft 305 kts 126°
2026-04-20 17:02 9.52842 123.36124 9626 ft 300 kts 126°
2026-04-20 17:02 9.51632 123.37856 9118 ft 302 kts 126°
2026-04-20 17:03 9.50410 123.39605 8563 ft 306 kts 126°
2026-04-20 17:03 9.49175 123.41373 8008 ft 309 kts 126°
2026-04-20 17:03 9.47932 123.43158 7440 ft 311 kts 125°
2026-04-20 17:03 9.46682 123.44951 6880 ft 312 kts 124°
2026-04-20 17:04 9.45442 123.46729 6318 ft 314 kts 124°
2026-04-20 17:04 9.44177 123.48538 5720 ft 315 kts 124°
2026-04-20 17:04 9.42911 123.50344 5145 ft 315 kts 124°
2026-04-20 17:04 9.41644 123.52150 4566 ft 315 kts 124°
2026-04-20 17:05 9.40377 123.53955 3987 ft 314 kts 124°
2026-04-20 17:05 9.39113 123.55751 3410 ft 313 kts 124°
2026-04-20 17:05 9.37858 123.57526 3053 ft 304 kts 125°
2026-04-20 17:05 9.36385 123.58946 2961 ft 281 kts 148°
2026-04-20 17:06 9.34643 123.59557 2970 ft 253 kts 172°
2026-04-20 17:06 9.32974 123.59462 2980 ft 232 kts 193°
2026-04-20 17:06 9.31562 123.58838 2971 ft 216 kts 214°
2026-04-20 17:06 9.30479 123.57821 2975 ft 211 kts 233°
2026-04-20 17:07 9.29812 123.56583 3007 ft 188 kts 252°
2026-04-20 17:07 9.29559 123.55349 2973 ft 171 kts 269°
2026-04-20 17:07 9.29626 123.54191 2962 ft 160 kts 284°
2026-04-20 17:07 9.29948 123.53141 2964 ft 154 kts 298°
2026-04-20 17:08 9.30490 123.52227 2971 ft 150 kts 311°
2026-04-20 17:08 9.31101 123.51365 2980 ft 151 kts 306°
2026-04-20 17:08 9.31612 123.50433 2976 ft 152 kts 298°
2026-04-20 17:08 9.32008 123.49458 3009 ft 152 kts 292°
2026-04-20 17:09 9.32294 123.48427 2988 ft 152 kts 285°
2026-04-20 17:09 9.32457 123.47373 2983 ft 152 kts 278°
2026-04-20 17:09 9.32521 123.46300 2966 ft 154 kts 276°
2026-04-20 17:09 9.32581 123.45220 2743 ft 153 kts 276°
2026-04-20 17:10 9.32643 123.44153 2539 ft 151 kts 276°
2026-04-20 17:10 9.32704 123.43090 2339 ft 151 kts 276°
2026-04-20 17:10 9.32763 123.42033 2122 ft 150 kts 275°
2026-04-20 17:10 9.32822 123.40980 1928 ft 149 kts 275°
2026-04-20 17:11 9.32880 123.39935 1728 ft 148 kts 276°
2026-04-20 17:11 9.32938 123.38903 1530 ft 146 kts 275°
2026-04-20 17:11 9.32995 123.37879 1337 ft 146 kts 275°
2026-04-20 17:11 9.33050 123.36856 1150 ft 145 kts 274°
2026-04-20 17:12 9.33106 123.35842 958 ft 144 kts 274°
2026-04-20 17:12 9.33162 123.34840 767 ft 142 kts 274°
2026-04-20 17:12 9.33218 123.33853 575 ft 139 kts 274°
2026-04-20 17:12 9.33271 123.32875 382 ft 138 kts 274°
2026-04-20 17:13 9.33319 123.31916 179 ft 138 kts 273°
2026-04-20 17:13 9.33370 123.30949 32 ft 137 kts 274°
2026-04-20 17:13 9.33418 123.30144 16 ft 76 kts 273°
2026-04-20 17:13 9.33437 123.29855 25 ft 28 kts 274°
2026-04-20 17:14 9.33429 123.29724 30 ft 13 kts 224°
2026-04-20 17:14 9.33374 123.29669 30 ft 9 kts 252°
2026-04-20 17:14 9.33374 123.29617 32 ft 6 kts 271°
2026-04-20 17:14 9.33374 123.29589 33 ft 2 kts 268°
2026-04-20 17:15 9.33364 123.29577 32 ft 7 kts 220°
2026-04-20 17:15 9.33318 123.29566 33 ft 0 kts 178°